Wind_Speed
13 13 13 12 11 12 13 13 13 12 12 12 11 10 9 9 9 7 7 7 6 6 5 3 3 3 3 3 3 3 3 3 4 5 5 5 5 4 4 3 3 3 3 4 4 4 4 3 4
13 13 12 12 13 13 14 14 13 13 13 12 11 10 10 9 9 8 7 7 7 6 5 4 3 3 2 2 2 2 3 3 4 4 5 5 5 4 4 3 3 3 3 3 2 3 4 4 4
14 14 12 13 15 15 15 15 14 13 13 12 12 11 10 9 9 8 8 7 7 7 6 4 3 2 2 2 3 3 3 4 4 4 4 4 4 4 4 4 3 3 3 3 2 2 2 3 4
13 14 13 15 16 16 16 15 14 13 13 13 12 12 10 10 9 9 9 9 8 7 6 6 3 1 1 2 2 3 3 4 4 4 4 4 3 3 4 4 3 2 3 2 2 2 2 2 3
13 14 15 16 16 16 17 16 15 13 14 13 13 13 11 10 10 9 9 9 9 8 8 7 5 4 2 3 3 3 4 4 3 3 3 3 2 3 4 4 3 2 2 3 3 2 2 1 2
12 14 16 16 16 15 17 17 16 14 14 14 13 13 12 11 10 10 9 10 10 9 8 8 8 6 5 6 5 4 4 4 4 4 4 3 3 2 3 3 3 2 2 2 2 2 2 1 2
12 15 16 16 15 15 16 16 16 15 14 14 13 13 12 12 12 10 10 10 10 9 9 9 9 8 6 7 6 5 5 5 5 5 4 3 2 1 1 2 2 1 2 2 2 2 2 1 1
14 15 15 16 16 15 16 15 15 15 14 14 14 12 12 12 12 11 10 10 10 9 9 9 9 8 8 7 6 6 5 5 4 4 4 3 2 2 2 2 2 1 1 2 2 2 1 1 1
14 15 14 15 15 15 15 15 15 15 14 14 14 13 12 12 12 11 11 10 10 9 9 9 9 9 8 7 6 6 5 5 4 4 4 3 3 3 2 2 2 2 2 1 1 1 0 1 1
13 14 13 14 14 14 15 14 15 14 14 14 14 13 12 12 12 11 10 11 10 10 10 10 9 9 8 7 6 7 6 5 5 4 4 4 3 3 3 3 3 3 2 1 1 0 1 1 1
12 12 12 13 14 15 15 14 14 13 13 13 13 12 12 12 11 10 10 10 10 11 11 11 10 10 9 8 7 7 7 6 6 5 4 3 3 4 4 3 2 2 1 1 1 1 1 0 1
11 11 11 12 13 14 14 14 13 13 12 12 12 12 11 11 10 10 10 10 10 11 11 10 10 9 9 9 9 8 8 7 6 6 5 4 4 3 3 2 2 1 1 1 1 1 1 1 1
11 11 11 12 13 14 14 14 13 12 13 13 13 12 11 11 10 10 10 10 10 10 10 10 10 9 9 9 9 9 8 8 7 7 6 5 4 3 3 2 2 1 1 0 1 1 1 1 1
10 10 11 12 13 13 14 13 13 13 13 13 13 12 11 11 10 10 10 10 10 9 9 10 10 10 10 10 9 8 7 7 7 7 7 6 5 3 2 2 1 0 0 0 1 1 1 1 1
10 9 10 10 12 13 13 12 12 13 13 13 12 11 10 10 10 10 9 9 10 9 9 9 9 9 10 10 9 9 8 7 7 8 7 7 6 4 3 2 1 1 0 1 1 1 1 2 1
8 8 9 8 10 12 12 12 12 12 12 12 11 11 10 9 9 9 9 9 9 9 9 9 9 9 9 8 8 8 8 8 7 7 7 7 6 6 4 3 3 2 1 1 2 1 1 1 2
5 6 6 5 7 9 10 11 11 11 10 10 10 10 10 9 8 8 8 8 8 8 9 9 9 9 8 8 8 8 8 8 7 6 7 7 6 6 5 4 3 3 2 2 2 2 1 1 2
3 3 3 4 5 6 8 9 10 10 9 9 9 9 9 8 8 7 7 7 7 7 7 8 8 8 8 8 8 8 8 8 7 6 6 6 6 6 5 5 4 4 4 3 3 2 2 2 3
2 2 0 1 3 4 6 7 9 10 9 9 8 8 7 8 8 7 7 7 7 6 6 7 7 7 7 7 7 7 7 7 7 6 6 6 6 5 5 5 5 5 5 5 4 4 3 3 4
2 1 1 2 3 3 3 5 7 8 9 9 8 8 6 6 7 7 7 7 6 6 6 6 6 7 6 6 6 7 6 6 6 6 6 6 6 6 5 5 5 5 5 5 5 4 4 4 5
4 3 2 3 5 5 4 5 6 7 8 8 8 7 6 4 5 6 7 6 5 5 5 5 6 6 6 6 6 6 6 6 6 6 5 5 6 6 5 5 5 5 5 5 5 5 5 5 5
6 5 5 6 8 8 6 6 5 6 7 7 7 7 6 4 3 4 5 5 5 5 5 5 5 5 5 5 5 5 5 5 5 6 6 6 6 5 5 5 5 5 5 5 5 6 6 6 6
8 8 8 8 9 9 9 7 4 6 6 6 6 7 6 5 4 4 3 3 4 5 5 5 5 5 5 5 5 5 5 5 6 6 6 6 6 6 6 6 6 6 6 6 6 7 7 7 8
9 10 11 11 11 11 10 9 5 5 6 6 5 5 5 4 4 3 2 3 4 4 5 5 5 5 5 5 5 5 5 5 5 6 6 7 6 6 6 7 7 7 7 7 8 8 9 9 10
11 11 11 11 11 10 11 11 8 6 6 6 5 5 5 5 4 4 4 4 4 5 5 5 5 5 5 5 5 5 5 5 5 6 7 7 7 7 7 7 8 8 8 8 9 9 10 10 11
13 13 14 12 11 11 12 13 9 8 7 7 6 7 6 5 5 5 6 6 5 5 5 5 5 6 6 6 6 5 6 6 6 6 7 8 8 9 9 9 9 10 10 11 11 11 11 12 13
14 15 15 14 13 13 13 12 10 10 9 8 7 7 6 6 6 6 6 6 5 4 4 5 6 6 7 7 7 7 7 7 7 7 8 9 9 10 10 10 11 12 13 13 14 14 13 14 14
16 16 17 16 15 14 13 12 10 9 10 9 8 7 7 6 6 7 6 6 6 5 5 6 6 7 7 8 8 7 7 7 7 7 8 9 9 10 11 11 12 13 14 14 15 15 15 15 16
16 16 17 18 18 17 16 13 11 11 11 10 11 10 9 8 7 8 8 8 8 7 7 7 8 9 9 9 9 9 9 8 8 8 9 10 11 11 12 12 14 14 15 14 15 15 16 16 16
18 17 18 19 18 17 17 15 13 13 12 12 12 12 12 11 9 9 9 9 9 9 9 9 9 9 10 10 10 10 10 10 10 11 11 11 12 13 13 14 15 16 16 16 16 16 16 16 16
Wind_Direction
83 74 71 69 64 62 62 61 60 61 58 53 49 48 50 52 52 54 60 59 58 58 72 78 104 118 123 115 115 137 146 153 152 154 152 152 154 157 158 163 160 164 170 167 167 177 169 152 149
82 75 68 65 63 58 57 58 56 59 57 52 49 50 49 55 56 54 56 58 58 60 69 84 97 114 122 113 114 117 146 150 155 161 158 156 156 165 171 184 179 181 186 175 175 172 152 149 151
76 73 66 65 61 58 56 56 54 53 55 52 50 51 50 54 58 54 53 57 62 66 71 77 83 92 107 106 115 124 128 139 140 146 160 165 160 156 156 175 186 195 192 189 186 165 151 149 163
75 67 66 63 61 60 59 55 51 48 50 51 50 50 50 57 60 57 54 57 66 70 65 55 52 62 102 113 120 133 139 135 132 133 146 161 173 187 181 179 189 196 187 188 175 153 152 168 174
77 71 62 60 60 59 56 54 51 45 45 49 52 49 52 60 60 60 55 53 58 58 54 51 56 69 87 109 119 132 139 139 141 146 146 156 162 165 178 180 183 191 181 174 176 159 141 159 179
78 73 62 62 58 55 55 53 53 48 44 47 51 50 48 56 57 58 55 51 52 54 55 56 62 78 89 93 96 111 117 126 129 135 136 144 148 154 166 168 177 178 156 158 143 150 127 144 161
79 68 62 60 57 53 55 53 55 52 45 45 48 50 48 53 54 56 55 53 53 56 63 67 69 77 91 91 91 100 110 122 121 124 124 124 130 132 156 169 180 181 157 135 113 130 146 200 168
70 64 62 61 57 53 53 51 53 52 46 44 45 45 48 53 55 55 56 57 57 59 68 64 68 76 84 89 95 100 108 117 119 122 124 116 105 103 116 156 169 162 142 133 142 138 156 225 240
74 63 62 59 57 52 51 48 48 50 44 42 43 43 44 48 53 54 56 57 57 61 71 68 66 69 74 82 87 96 104 110 116 111 99 100 99 94 97 114 126 152 157 159 177 204 276 280 257
75 63 62 59 54 52 50 49 48 46 44 40 40 41 44 46 52 56 57 57 58 63 68 69 66 66 71 75 78 83 88 94 98 104 94 84 79 87 97 111 121 137 147 154 158 195 314 291 178
68 64 59 54 53 49 45 46 46 44 44 41 40 41 46 48 51 55 58 60 59 61 65 65 65 63 66 70 74 81 86 88 92 91 85 82 81 87 92 101 116 131 128 114 73 6 320 155 172
70 68 61 51 49 47 43 43 43 42 41 42 41 42 48 50 52 54 57 62 62 60 63 62 63 63 64 67 71 77 80 81 85 82 77 76 85 88 87 103 125 146 133 93 22 1 329 292 264
67 67 65 56 50 49 44 43 41 39 39 41 41 42 47 49 52 52 54 58 61 60 60 64 64 65 67 67 66 70 74 74 74 72 61 64 76 78 79 86 103 128 119 274 314 16 337 298 264
73 63 57 55 51 49 43 40 39 37 36 37 38 39 46 50 52 52 49 50 57 60 61 60 62 66 67 67 65 63 64 63 63 63 60 61 60 58 75 78 68 128 148 51 322 297 312 311 278
77 59 55 53 50 45 42 37 38 37 34 33 36 38 44 50 53 52 47 48 53 58 60 61 63 64 66 68 64 60 56 59 62 60 56 51 49 53 65 69 46 37 351 310 341 318 315 297 273
85 64 53 51 48 40 35 33 34 36 35 32 34 36 40 47 49 51 50 50 53 57 60 61 62 61 61 64 64 61 55 54 56 55 52 51 52 59 61 68 60 41 359 328 326 318 341 318 287
92 77 55 41 46 39 24 26 27 28 31 29 32 35 37 42 43 44 46 47 52 56 59 59 57 55 53 54 56 54 49 47 47 48 50 53 54 53 56 62 55 41 26 356 333 317 323 315 309
115 112 56 30 29 26 14 17 23 20 22 23 26 30 34 37 38 36 42 45 50 53 54 54 51 47 46 48 49 47 46 44 43 45 52 53 49 48 55 52 43 28 20 7 357 354 347 323 321
152 170 188 343 3 353 5 8 11 13 12 16 15 21 31 34 37 38 44 45 46 47 49 48 43 41 40 39 38 35 36 37 38 41 43 40 40 41 40 36 27 17 7 359 355 353 338 323 322
208 261 276 288 307 313 344 358 360 9 12 9 5 6 18 29 32 34 45 41 39 41 43 41 37 37 36 33 28 25 25 25 27 31 32 30 30 30 25 18 11 3 358 353 348 339 329 325 317
234 256 248 256 258 268 306 338 344 351 1 3 358 1 11 16 18 25 26 32 33 33 36 35 33 27 24 25 20 18 17 18 17 16 14 14 17 20 16 6 356 350 344 340 335 334 326 322 314
247 250 242 241 251 258 278 301 341 351 354 357 357 358 354 352 1 17 21 27 27 25 23 22 16 14 11 12 12 14 12 10 7 4 2 0 1 0 359 357 347 341 338 337 327 324 318 312 306
249 246 236 235 242 250 252 271 328 343 344 341 341 347 350 335 344 2 8 15 20 20 12 7 5 2 2 3 5 7 4 1 359 357 355 352 348 350 350 348 343 338 336 338 333 325 315 311 309
245 245 237 236 238 247 248 258 280 323 326 331 334 333 335 334 324 335 331 345 7 5 357 357 3 6 2 360 356 353 352 350 351 356 352 347 341 341 341 338 334 328 328 328 324 323 319 317 313
242 242 243 240 239 246 249 253 264 286 298 312 322 320 322 318 319 321 320 332 339 340 344 350 356 0 357 352 347 346 348 348 346 346 343 342 343 340 333 335 331 328 326 322 317 314 313 312 310
249 252 251 249 248 247 244 250 259 268 279 287 299 310 317 320 312 314 314 314 320 323 330 343 350 355 355 352 347 345 345 346 342 337 336 337 335 334 335 333 329 328 326 322 318 312 308 308 305
246 250 254 253 255 250 244 245 254 264 275 288 299 305 309 311 311 308 305 306 308 310 324 333 343 345 345 345 341 337 335 331 331 332 333 334 332 330 329 326 322 322 321 319 316 314 308 308 306
243 251 251 246 249 248 248 247 261 273 278 278 287 294 303 301 299 298 301 305 310 306 313 323 327 332 332 330 330 331 328 324 325 329 330 329 327 324 324 322 321 319 317 316 314 312 308 309 310
240 247 250 245 249 246 247 249 252 267 274 275 283 292 294 292 295 301 298 297 302 304 305 311 315 319 322 321 319 319 319 318 318 321 322 322 320 318 316 315 315 315 315 314 315 314 310 310 311
237 244 248 249 248 243 248 249 254 263 268 271 280 286 299 296 293 293 289 287 289 294 296 300 303 307 310 312 312 310 312 314 315 315 314 312 312 312 311 311 311 310 312 311 311 314 315 312 310
Height
5907 5906 5906 5906 5906 5904 5903 5902 5902 5901 5901 5900 5899 5898 5898 5897 5897 5898 5894 5892 5892 5891 5891 5891 5891 5891 5891 5892 5892 5892 5892 5893 5893 5894 5894 5895 5895 5896 5897 5897 5897 5897 5897 5897 5898 5898 5897 5897 5897
5908 5907 5908 5908 5906 5905 5904 5904 5903 5903 5902 5901 5900 5900 5899 5898 5897 5896 5894 5893 5893 5892 5891 5891 5891 5891 5891 5892 5892 5892 5893 5893 5894 5894 5894 5895 5896 5896 5897 5897 5897 5898 5898 5898 5898 5898 5898 5898 5898
5909 5909 5910 5909 5907 5907 5906 5905 5905 5905 5904 5903 5902 5901 5900 5899 5898 5896 5895 5894 5893 5893 5892 5892 5892 5892 5892 5892 5893 5893 5893 5894 5894 5895 5895 5895 5896 5897 5897 5897 5898 5898 5898 5898 5898 5898 5898 5898 5898
5912 5912 5912 5911 5909 5909 5908 5907 5906 5906 5905 5904 5903 5902 5901 5900 5899 5898 5896 5895 5894 5893 5893 5892 5891 5891 5891 5892 5892 5893 5893 5894 5895 5895 5895 5896 5897 5898 5898 5898 5898 5898 5898 5898 5898 5898 5898 5898 5899
5914 5914 5913 5912 5911 5910 5910 5909 5908 5908 5907 5905 5904 5903 5902 5901 5900 5899 5898 5896 5895 5894 5894 5892 5890 5889 5891 5892 5892 5893 5894 5894 5895 5896 5896 5897 5897 5898 5898 5898 5898 5898 5898 5897 5898 5898 5899 5898 5898
5915 5915 5914 5913 5913 5912 5912 5911 5910 5909 5908 5907 5906 5905 5903 5902 5901 5900 5899 5898 5896 5895 5895 5893 5891 5890 5891 5892 5893 5894 5894 5895 5895 5896 5896 5897 5898 5898 5898 5898 5898 5898 5898 5898 5898 5898 5898 5898 5898
5917 5916 5915 5915 5915 5914 5913 5912 5912 5911 5910 5908 5907 5906 5905 5903 5902 5901 5900 5899 5898 5897 5896 5895 5893 5892 5892 5893 5894 5894 5895 5895 5896 5896 5897 5897 5898 5898 5898 5898 5898 5898 5898 5898 5899 5899 5899 5898 5898
5918 5918 5917 5917 5917 5916 5916 5914 5914 5913 5911 5910 5909 5907 5906 5905 5904 5902 5902 5900 5899 5898 5897 5896 5895 5895 5895 5894 5894 5895 5895 5896 5896 5897 5897 5898 5898 5898 5898 5898 5898 5898 5898 5898 5898 5898 5898 5898 5898
5919 5920 5919 5919 5919 5919 5917 5916 5915 5914 5913 5912 5910 5909 5907 5906 5905 5904 5903 5902 5901 5900 5899 5898 5897 5896 5896 5896 5896 5896 5896 5896 5897 5897 5898 5898 5898 5898 5898 5897 5897 5898 5898 5898 5898 5898 5898 5898 5897
5920 5920 5921 5921 5921 5920 5919 5918 5917 5915 5914 5913 5912 5910 5909 5908 5907 5906 5905 5904 5903 5901 5900 5899 5899 5898 5897 5897 5897 5897 5897 5897 5898 5898 5898 5898 5898 5898 5898 5898 5898 5898 5898 5898 5898 5898 5897 5897 5897
5921 5922 5922 5922 5922 5921 5920 5919 5918 5917 5916 5915 5913 5912 5911 5909 5908 5907 5907 5906 5904 5903 5902 5901 5900 5900 5899 5899 5898 5898 5898 5899 5899 5899 5899 5898 5898 5898 5898 5898 5898 5898 5898 5898 5898 5897 5897 5897 5897
5923 5923 5923 5924 5923 5922 5922 5921 5920 5919 5918 5917 5915 5914 5912 5911 5910 5909 5908 5907 5906 5905 5904 5903 5902 5901 5901 5900 5899 5899 5899 5899 5899 5899 5899 5899 5899 5899 5898 5898 5898 5898 5898 5898 5897 5897 5896 5896 5896
5925 5925 5925 5925 5925 5924 5924 5923 5922 5920 5919 5918 5916 5915 5914 5913 5911 5910 5909 5909 5908 5907 5906 5905 5904 5903 5902 5902 5901 5901 5900 5900 5900 5900 5899 5899 5898 5898 5898 5898 5898 5898 5898 5898 5897 5897 5896 5896 5895
5926 5927 5926 5926 5926 5926 5925 5925 5924 5922 5920 5919 5918 5916 5915 5914 5913 5912 5911 5910 5909 5908 5908 5907 5906 5905 5904 5904 5903 5903 5902 5902 5901 5900 5900 5899 5899 5898 5898 5898 5898 5898 5897 5897 5896 5896 5896 5895 5895
5927 5928 5927 5927 5927 5927 5926 5926 5924 5923 5922 5921 5919 5918 5917 5916 5915 5914 5912 5912 5911 5910 5909 5908 5908 5907 5906 5906 5905 5904 5903 5903 5902 5901 5900 5899 5899 5898 5898 5897 5897 5897 5897 5896 5896 5896 5895 5895 5894
5928 5928 5928 5928 5927 5927 5928 5926 5925 5924 5923 5922 5920 5919 5918 5917 5916 5915 5914 5913 5912 5911 5910 5909 5909 5908 5907 5907 5906 5905 5904 5903 5903 5902 5901 5900 5899 5898 5898 5897 5897 5897 5896 5896 5896 5895 5894 5894 5894
5928 5928 5928 5929 5928 5928 5928 5927 5925 5924 5924 5923 5922 5921 5919 5918 5917 5916 5915 5914 5913 5912 5912 5911 5910 5909 5908 5907 5907 5906 5905 5904 5903 5903 5902 5901 5900 5899 5898 5898 5897 5897 5896 5895 5895 5894 5894 5893 5893
5928 5928 5928 5929 5928 5928 5928 5927 5926 5925 5925 5924 5923 5922 5921 5919 5918 5917 5916 5915 5914 5913 5913 5912 5911 5910 5909 5908 5907 5907 5906 5905 5904 5903 5902 5901 5900 5899 5898 5898 5897 5896 5896 5895 5894 5893 5893 5893 5892
5927 5927 5928 5929 5928 5928 5928 5927 5927 5926 5925 5924 5923 5922 5921 5920 5919 5918 5917 5916 5915 5914 5914 5913 5912 5911 5910 5909 5908 5907 5906 5905 5905 5904 5902 5901 5900 5899 5898 5898 5897 5896 5895 5894 5894 5893 5892 5892 5891
5926 5927 5927 5928 5927 5927 5927 5927 5927 5926 5925 5924 5923 5922 5921 5920 5920 5919 5917 5917 5916 5915 5914 5913 5912 5911 5910 5909 5908 5907 5906 5905 5905 5904 5902 5901 5900 5899 5898 5897 5896 5896 5895 5894 5893 5892 5891 5891 5890
5925 5926 5927 5926 5926 5926 5927 5927 5926 5925 5924 5924 5923 5922 5921 5920 5920 5919 5918 5917 5916 5916 5915 5914 5913 5912 5911 5910 5908 5907 5906 5905 5904 5903 5902 5901 5900 5899 5898 5897 5896 5895 5894 5893 5891 5891 5890 5889 5889
5923 5924 5925 5925 5925 5925 5925 5925 5925 5924 5923 5923 5922 5922 5921 5920 5919 5919 5918 5917 5917 5916 5914 5913 5913 5912 5910 5909 5908 5907 5906 5905 5904 5903 5902 5900 5899 5898 5897 5896 5894 5893 5892 5891 5890 5889 5888 5887 5886
5921 5922 5922 5923 5923 5923 5923 5923 5924 5923 5922 5922 5921 5920 5920 5919 5919 5918 5917 5917 5916 5915 5914 5913 5912 5911 5910 5909 5908 5907 5906 5905 5903 5902 5900 5899 5898 5897 5895 5894 5893 5892 5890 5889 5888 5887 5886 5885 5884
5919 5919 5920 5920 5921 5921 5922 5921 5922 5921 5921 5920 5920 5919 5919 5918 5917 5917 5917 5916 5915 5914 5914 5913 5911 5910 5909 5908 5907 5906 5905 5903 5902 5900 5899 5898 5896 5895 5894 5893 5892 5890 5889 5888 5886 5885 5884 5882 5881
5916 5917 5918 5918 5918 5919 5919 5918 5920 5919 5919 5919 5919 5918 5917 5917 5916 5916 5915 5915 5914 5913 5912 5911 5910 5909 5908 5907 5906 5905 5904 5902 5901 5899 5898 5897 5895 5894 5892 5891 5889 5888 5887 5886 5884 5883 5881 5880 5878
5913 5915 5916 5916 5916 5916 5916 5915 5918 5917 5916 5917 5917 5916 5916 5915 5915 5914 5914 5913 5912 5912 5911 5910 5909 5908 5907 5906 5905 5904 5902 5901 5900 5898 5897 5895 5894 5892 5891 5889 5888 5886 5885 5883 5882 5880 5878 5876 5875
5910 5910 5912 5913 5912 5912 5912 5913 5914 5914 5914 5914 5914 5914 5913 5913 5913 5912 5912 5912 5911 5910 5910 5908 5907 5906 5905 5904 5903 5902 5901 5899 5898 5896 5895 5894 5892 5891 5889 5888 5886 5885 5883 5881 5879 5876 5875 5873 5871
5907 5907 5908 5908 5909 5909 5909 5910 5911 5911 5911 5911 5911 5911 5911 5911 5910 5910 5910 5910 5909 5909 5908 5907 5906 5905 5904 5902 5901 5900 5898 5897 5896 5895 5893 5892 5890 5889 5887 5885 5884 5882 5880 5878 5875 5873 5871 5869 5867
5902 5903 5903 5904 5905 5905 5906 5909 5909 5909 5909 5908 5908 5908 5908 5908 5908 5907 5908 5908 5907 5907 5906 5905 5904 5903 5901 5900 5899 5898 5896 5895 5893 5892 5891 5889 5888 5886 5884 5882 5881 5879 5876 5874 5872 5869 5867 5865 5862
5897 5898 5899 5900 5901 5901 5902 5906 5905 5905 5905 5906 5906 5906 5905 5905 5905 5905 5905 5904 5904 5904 5903 5902 5901 5900 5899 5897 5896 5895 5893 5892 5890 5889 5888 5886 5885 5883 5881 5879 5877 5875 5873 5870 5868 5866 5864 5861 5858